map of IKA home
Great Circle Mapper logo
IKA - Airport
Location
City:  Tehran, Iran
Near (Alt.):Teheran
Name:Imam Khomeini International Airport
Old (Alt.):Ahmadabad
ICAO / IATA:OIIE / IKA

Details
Type:Airport (Aerodrome, Airfield)
Use:International (customs port of entry)
Latitude:3524'58"N (35.416111)
Longitude:5109'08"E (51.152222)
Datum:WGS 1984
Elevation:3305 ft (1007 m)
Variation:4.5E (WMM2015 magnetic declination)
Runways:2
Longest:13940 × 148 ft (4249 × 45 m), paved

Time
Time Zone:UTC+3:30 (DST+4:30)
Local Time:

Weather
METAR:OIIE 201630Z 32016KT 9999 FEW040 BKN100 05/01 Q1019
TAF:OIIE 201100Z 2012/2118 32005MPS 7000 FEW035CB SCT040 BKN100
TEMPO 2015/2018 3000 RA
BECMG 2102/2104 21005MPS 3000 HZ
BECMG 2112/2114 6000 FEW035 SCT100

Related Locations
Nearby:
Farthest:GMR: 11508 mi / 18521 km
Mangareva [Totegegie], Gambier Islands, PF

Find:

   beyond  
but within

Other Information
Maps:
NOTAMs:
Links:
Sources:

  
flag of Iran   

Sectional Chart

Flight Planning
at skyvector.com

Satellite Image

Google Maps Satellite View

 

Copyright © 2004-2014 Karl L. Swartz. All rights reserved.
The Great Circle Mapper name and logo are trademarks of the Great Circle Mapper.
All other trademarks mentioned herein belong to their respective owners.
Please see credits for attibutions and further copyright information.

  Follow gcmap on Facebook Follow gcmap on Twitter

hCard Microformat

Geo Microformat